{"data":{"norad_id":56516,"epoch":"2026-05-25T00:10:03.588672Z","epoch_age_seconds":88153,"freshness":"FRESH","line1":"1 56516U 23065P   26145.00698598  .00000431  00000+0  25191-4 0  9991","line2":"2 56516  43.0029 141.2940 0001400 267.8835  92.1857 15.27579723168272","mean_motion":15.27579723,"eccentricity":0.00014,"inclination_deg":43.0029,"raan_deg":141.294,"arg_perigee_deg":267.8835,"mean_anomaly_deg":92.1857,"bstar":2.5191e-5,"rev_number":16827,"period_min":94.266765807286,"perigee_km":482.08935930786,"apogee_km":484.010491647,"semimajor_km":6861.1869254774,"source":"CELESTRAK","updated_at":"2026-05-25T13:38:18.107279Z"}}